Location: Altleiningen
(49.5078°N, 8.0741°E)
Time: 04:29:17
(UTC+00:00)

Cosmos 1908 Rocket - Pass Details

Date: 14 June 2025
Orbit: 601 x 625 km, 82.5° (Epoch: 12 July)

Event Time Altitude Azimuth Distance (km) Brightness Sun altitude
Rises 23:33:57 0° 344° (NNW) 2,879 8.4 -17.2°
Reaches altitude 10° 23:36:14 10° 337° (NNW) 1,973 7.2 -17.2°
Maximum altitude 23:40:21 42° 267° (W) 881 4.3 -17.1°
Enters shadow 23:42:04 28° 218° (SW) 1,151 4.5 -17.1°
